RESURS-P 4

Last updated on Thu Oct 30 2025 00:02:32 GMT+0000 (Coordinated Universal Time)

1 59371U 24061A 25302.50203516 .00006229 00000+0 19569-3 0 9993 2 59371 97.2469 249.7320 0003457 96.5259 263.6377 15.33341462 88435
UTC large
Height (km)
Speed (km/s)
/
Latitude / Longitude
Inclination (degrees)
Orbital Period (minutes)
Azimuth
Elevation
Range (km)
Doppler Factor

Next 0 passes for location: London (51.5072 / 0.1276)

Sorry there are no passes over London.